Regional Weather Roundup
Issued by NWS

Home | Current Version | Previous Version | Text Only | Print | Product List | Glossary On
Versions: 1 2 3 4 5 6 7 8 9 10 11 12 13 14 15 16 17 18 19 20 21 22 23 24 25 26 27 28 29 30 31 32 33 34 35 36 37 38 39 40 41 42 43 44 45 46 47 48 49 50
000
ASUS44 KJAN 010810
RWRMS

MISSISSIPPI HOURLY WEATHER ROUNDUP
NATIONAL WEATHER SERVICE JACKSON MS
300 AM CDT WED OCT 01 2014

NOTE: "FAIR: INDICATES FEW OR NO CLOUDS BELOW 12,000 FEET WITH NO
SIGNIFICANT WEATHER AND/OR OBSTRUCTIONS TO VISIBILITY.

MSZ001>002-007>008-010>013-018>021-025>028-034>036-010900-
NORTHWEST MISSISSIPPI

CITY           SKY/WX    TMP DP  RH WIND       PRES   REMARKS
CLARKSDALE     FAIR      66  64  94 CALM      29.89S
CLEVELAND      FAIR      72  66  81 SE5       29.87S
GREENWOOD      CLEAR     65  61  87 NE3       29.89R
GREENVILLE     CLEAR     69  63  81 SE5       29.87S
GRENADA        FAIR      61  61 100 CALM      29.90S
OLIVE BRANCH   CLEAR     64  64 100 CALM      29.90S
OXFORD         FAIR      63  59  88 CALM      29.92S
TUNICA         SUNNY     63  59  88 CALM      29.89S
$$

MSZ003>006-009-014>017-022>024-029>033-037>039-010900-
NORTHEAST MISSISSIPPI

CITY           SKY/WX    TMP DP  RH WIND       PRES   REMARKS
COLUMBUS AFB   CLEAR     61  61 100 CALM      29.90S
CORINTH          N/A     61  59  94 CALM      29.90S FOG
GOLDN TRIANGLE CLEAR     64  57  77 S5        29.89F
STARKVILLE     FAIR      59  59 100 CALM      29.90S
TUPELO         CLEAR     64  60  87 CALM      29.90S
$$

MSZ040-058-010900-
CENTRAL MISSISSIPPI

CITY           SKY/WX    TMP DP  RH WIND       PRES   REMARKS
JACKSON INTL   CLEAR     66  64  93 CALM      29.89S
JACKSON HAWKNS CLEAR     70  65  84 SE3       29.90R
MERIDIAN KEY   CLEAR     63  61  93 CALM      29.91S
MERIDIAN NAS   CLEAR     62  60  93 CALM      29.91S
RAYMOND        FAIR      66  63  88 CALM      29.89S
VICKSBURG      MOCLDY    75  69  81 S8        29.87S
$$

MSZ059>079-010900-
SOUTH MISSISSIPPI

CITY           SKY/WX    TMP DP  RH WIND       PRES   REMARKS
BROOKHAVEN     FAIR      72  72 100 SE3       29.92R FOG
COLUMBIA       FOG       68  66  94 CALM      29.89S VSB 1/2
HATTIESBURG    CLEAR     68  66  93 CALM      29.91S
MCCOMB         CLOUDY    72  70  93 SE6       29.90S FOG
NATCHEZ        PTCLDY    73  70  88 S6        29.89S
PINE BELT        N/A    N/A N/A N/A CALM      29.91S VSB 1/2
$$

MSZ080>082-010900-
COASTAL MISSISSIPPI

CITY           SKY/WX    TMP DP  RH WIND       PRES   REMARKS
BILOXI         PTCLDY    73  73 100 E3        29.89F
PASCAGOULA     CLEAR     66  65  96 CALM      29.89F
GULFPORT       PTCLDY    71  69  93 CALM      29.88F
$$



USA.gov is the U.S. government's official web portal to all federal, state and local government web resources and services.